THORAD DELTA 1 DEB, 8145

Orbit data source: Space-Track

THORAD DELTA 1 DEB, 8145 is space debris in SSO originally from a launch on Fri, 15 Nov 1974 UTC launched from the Air Force Western Test Range (AFWTR). Debris objects in space refer to the collection of defunct objects orbiting the Earth. Examples of debris include non-operational satellites, rocket bodies, and fragments generated from explosions, collisions, or faulty payload assembly.

Loading next visibility...
Identifier
8145, 1974-089P
Orbit
SSO
Country
Flag of USUS
Related business
Manufacturer
Unknown
Mission
Spacecraft
Bus & Motor
Unknown
Mass
Unknown
Launch date (UTC)
1974-11-15 (51 years ago)
Launch vehicle
Unknown
Launch site
Air Force Western Test Range (AFWTR)
Object type
Payload
Rocket body
Debris
Shape & HBR
Unknown shape, 0.2 m
Radar Cross Section
Medium (>0.1 m² and <1 m²)

Expand to show TLE details & history
Last TLE update: 7 hours ago

TLE from 7 hours ago
0 THORAD DELTA 1 DEB
1  8145U 74089P   26035.53546731  .00000078  00000-0  68600-3 0  9994
2  8145 101.1010 248.7926 0028101  48.0000 339.9786 12.60628820353546
Epoch: 2026-02-04T12:51Z
TLE epoch observation values (Epoch: 2026-02-04T12:51:04.375Z)
Latitude
27.34114°
Longitude
-84.47006°
Altitude
1,402.851 km
Speed
7.17 km/s
True Right ascension
16h 11m 59s
True Declination
27° 12' 46"
Sunlit
Object was in daylight at epoch
Visualization orbit readout
Latitude
Unknown
Longitude
Unknown
Altitude
Unknown
Speed
Unknown
Apparent Right ascension
Unknown
Apparent Declination
Unknown
Sunlit
N/A
Visualization observer readout
Local Sidereal Time
21:23:56
Azimuth
Unknown
Elevation
Unknown
Doppler factor
Unknown
Orbital elements
Apogee altitude
1,439.753 km
Perigee altitude
1,395.938 km
Semi-major axis
7,795.983 km
Eccentricity
0.00281
Inclination
101.101°
RAAN
248.7926°
Arg. of periapsis
48°
True anomaly
339.86799°
Mean anomaly
339.9786°
Eccentric anomaly
339.92333°
Mean motion
3.15309 °/min
Orbital period
114.17 mins
BSTAR
0.000686
Loading maneuver chart data...
Computing Atmospheric mass density...

Documentation

Showing up to 5 results
|